User: anonymous   Login
Location: Unspecified
(0.0000°N, 0.0000°E)
Time: 07:28:46
(UTC+00:00)
Language:

AEHF 1 (USA 214) - Orbit

View from above orbital plane
View from above orbital plane
View from above satellite
View from above satellite

Ground track
Ground track

The orbit data is extracted from the following two-line orbital elements,

1 36868U 10039A   17239.47015853 0.00000000  00000-0  00000-0 0    02
2 36868   0.6759 149.2404 0003451   4.8271 355.1418  1.00270000    06
Epoch (UTC): 27 August 2017 11:17:01
Eccentricity: 0.0003451
inclination: 0.6759°
perigee height: 35772 km
apogee height: 35801 km
right ascension of ascending node: 149.2404°
argument of perigee: 4.8271°
revolutions per day: 1.00270000
mean anomaly at epoch: 355.1418°
orbit number at epoch: 0

The dashed part of the orbit path shows where the satellite is in the earth's shadow,  

DLR